{"data":{"norad_id":54181,"intl_designator":"2022-141AA","name":"STARLINK-5227","alt_names":[],"object_type":"PAYLOAD","status":"ACTIVE","operator":null,"country":"US","launch_date":"2022-10-28","launch_site_code":"AFWTR","launch_vehicle":null,"mission":null,"orbit_class":"UNKNOWN","rcs_meters":null,"size_class":null,"mass_kg":null,"dimensions":null,"purposes":["comms"],"wikipedia_slug":null,"has_3d_model":false,"image_url":null,"decayed_at":null,"tle_current":{"epoch":"2026-05-25T02:00:12.746304Z","epoch_age_seconds":61117,"freshness":"FRESH","line1":"1 54181U 22141AA  26145.08348086  .00000254  00000+0  34051-4 0  9991","line2":"2 54181  53.2124  20.9488 0001384  75.4430 284.6715 15.08837193197395","mean_motion":15.08837193,"eccentricity":0.0001384,"inclination_deg":53.2124,"raan_deg":20.9488,"arg_perigee_deg":75.443,"mean_anomaly_deg":284.6715,"bstar":3.4051e-5,"rev_number":19739,"period_min":95.437732227217,"perigee_km":538.79453302016,"apogee_km":540.70940468674,"semimajor_km":6917.8889688534,"source":"CELESTRAK","updated_at":"2026-05-25T13:38:17.664354Z"}}}